Weather History for Peru, IL

Change the Weather History Date:

Sunday, February 6, 2011

  Actual Average Record
Temperature  
Mean Temperature 29 °F -  
Max Temperature 32 °F 29 °F 55 °F (1990)
Min Temperature 26 °F 13 °F -16 °F (1982)
Degree Days  
Heating Degree Days 36    
Moisture  
Dew Point 28 °F    
Average Humidity 90    
Maximum Humidity 93    
Minimum Humidity 85    
Precipitation  
Precipitation 0.08 in - - ()
Sea Level Pressure  
Sea Level Pressure 29.82 in    
Wind  
Wind Speed 7 mph (SSW)    
Max Wind Speed 12 mph    
Max Gust Speed -    
Visibility 4 miles    
Events Rain , Snow    
Averages and records for this station are not official NWS values.
T = Trace of Precipitation, MM = Missing Value Source: NWS Daily Summary

Daily Weather History Graph

Daily Weather History Graph

Search for Another Location

Airport:

Trip Planner

Search our weather history database for the weather conditions in past years. The results will help you decide how hot, cold, wet, or windy it might be!

Date:

Astronomy

Feb. 06, 2011 Rise Set
Actual Time 7:02 AM CST 5:18 PM CST
Civil Twilight 6:34 AM CST 5:47 PM CST
Nautical Twilight 6:01 AM CST 6:20 PM CST
Astronomical Twilight 5:28 AM CST 6:53 PM CST
Moon 8:16 AM CST (2/6) 9:07 PM CST (2/6)
Length of Visible Light 11h 13m
Length of Day
10h 16m
Waxing Crescent, 12% of the Moon is Illuminated
Feb 6
Waxing Crescent
Feb 11
First Quarter
Feb 18
Full
Feb 24
Last Quarter
Mar 4
New

Hourly Weather History & Observations

Time (CST) Temp. Windchill Dew Point Humidity Pressure Visibility Wind Dir Wind Speed Gust Speed Precip Events Conditions
12:05 AM 26.4 °F 18.9 °F 23.2 °F 88% 29.77 in 10.0 mi South 6.9 mph - N/A   Overcast
12:25 AM 27.0 °F 18.7 °F 24.1 °F 89% 29.77 in 10.0 mi South 8.1 mph - N/A   Overcast
12:45 AM 27.1 °F 18.9 °F 24.3 °F 89% 29.77 in 10.0 mi South 8.1 mph - N/A   Overcast
1:05 AM 27.1 °F 18.9 °F 24.4 °F 90% 29.77 in 10.0 mi South 8.1 mph - N/A   Overcast
1:25 AM 27.5 °F 19.3 °F 24.8 °F 90% 29.76 in 10.0 mi SSE 8.1 mph - N/A   Overcast
1:45 AM 27.5 °F 18.6 °F 24.8 °F 90% 29.76 in 10.0 mi SSE 9.2 mph - N/A   Overcast
2:05 AM 28.0 °F 19.3 °F 25.3 °F 90% 29.77 in 10.0 mi South 9.2 mph - N/A   Overcast
2:25 AM 28.4 °F 21.2 °F 25.7 °F 90% 29.77 in 10.0 mi South 6.9 mph - N/A   Overcast
2:45 AM 28.9 °F 21.9 °F 26.4 °F 90% 29.77 in 10.0 mi South 6.9 mph - N/A   Overcast
3:05 AM 29.3 °F 22.3 °F 26.6 °F 90% 29.77 in 10.0 mi South 6.9 mph - N/A   Overcast
3:25 AM 29.3 °F 23.2 °F 27.0 °F 91% 29.77 in 7.0 mi South 5.8 mph - N/A   Overcast
3:45 AM 30.2 °F 22.6 °F 26.6 °F 86% 29.77 in 3.0 mi South 8.1 mph - N/A Snow Light Snow
4:05 AM 29.7 °F 23.7 °F 27.5 °F 92% 29.77 in 2.0 mi South 5.8 mph - N/A Snow Light Snow
4:25 AM 29.8 °F 22.2 °F 27.9 °F 92% 29.77 in 1.2 mi South 8.1 mph - N/A Snow Light Snow
4:45 AM 29.8 °F 23.0 °F 27.9 °F 92% 29.77 in 1.5 mi SSE 6.9 mph - N/A Snow Light Snow
5:05 AM 29.8 °F 23.0 °F 27.9 °F 92% 29.77 in 1.8 mi SSE 6.9 mph - N/A Snow Light Snow
5:25 AM 30.2 °F 22.6 °F 28.4 °F 93% 29.77 in 1.2 mi SSE 8.1 mph - N/A Snow Light Snow
5:45 AM 29.8 °F 23.0 °F 28.0 °F 93% 29.78 in 1.0 mi SSE 6.9 mph - 0.01 in Snow Snow
6:05 AM 29.7 °F 22.8 °F 27.9 °F 93% 29.78 in 1.5 mi SSE 6.9 mph - 0.01 in Snow Light Snow
6:25 AM 29.7 °F 22.0 °F 27.9 °F 93% 29.78 in 2.0 mi South 8.1 mph - 0.01 in Snow Light Snow
6:45 AM 30.2 °F 23.4 °F 28.4 °F 93% 29.79 in 1.2 mi SSE 6.9 mph - N/A Snow Light Snow
7:05 AM 29.5 °F 22.5 °F 27.7 °F 93% 29.79 in 0.5 mi SSE 6.9 mph - 0.01 in Snow Snow
7:25 AM 29.7 °F 22.0 °F 27.9 °F 93% 29.80 in 0.5 mi SSE 8.1 mph - 0.02 in Snow Light Snow
7:45 AM 29.7 °F 22.8 °F 27.9 °F 93% 29.80 in 1.2 mi South 6.9 mph - 0.02 in Snow Light Snow
8:05 AM 29.8 °F 23.0 °F 28.0 °F 93% 29.80 in 0.8 mi South 6.9 mph - N/A Snow Light Snow
8:25 AM 29.8 °F 23.9 °F 28.0 °F 93% 29.81 in 1.2 mi South 5.8 mph - N/A Snow Light Snow
8:45 AM 30.2 °F 24.3 °F 28.4 °F 93% 29.81 in 1.8 mi South 5.8 mph - 0.02 in Snow Light Snow
9:05 AM 30.7 °F 24.9 °F 28.8 °F 92% 29.81 in 1.5 mi South 5.8 mph - N/A Snow Light Snow
9:25 AM 30.9 °F 25.2 °F 28.6 °F 91% 29.82 in 2.0 mi South 5.8 mph - 0.01 in Snow Light Snow
9:45 AM 31.1 °F 26.4 °F 28.8 °F 91% 29.82 in 1.2 mi South 4.6 mph - 0.01 in Snow Light Snow
10:05 AM 31.1 °F 25.4 °F 29.1 °F 92% 29.82 in 1.0 mi South 5.8 mph - N/A Snow Light Snow
10:25 AM 31.1 °F 25.4 °F 28.9 °F 92% 29.83 in 3.0 mi South 5.8 mph - 0.01 in Rain Light Freezing Rain
10:45 AM 32.0 °F 27.5 °F 29.3 °F 90% 29.84 in 2.5 mi South 4.6 mph - 0.01 in Snow Light Snow
11:05 AM 32.0 °F 28.7 °F 29.3 °F 90% 29.84 in 4.0 mi SSW 3.5 mph - N/A   Overcast
11:25 AM 32.2 °F 28.9 °F 29.5 °F 90% 29.84 in 2.0 mi SSW 3.5 mph - N/A Snow Light Snow
11:45 AM 32.5 °F - 29.8 °F 90% 29.83 in 4.0 mi Calm Calm - N/A Rain Light Rain
12:05 PM 32.9 °F - 30.0 °F 89% 29.83 in 4.0 mi Calm Calm - N/A Rain Light Rain
12:25 PM 32.5 °F - 29.7 °F 89% 29.83 in 5.0 mi Calm Calm - N/A   Overcast
12:45 PM 32.9 °F 29.8 °F 29.3 °F 87% 29.83 in 5.0 mi West 3.5 mph - N/A   Overcast
1:05 PM 32.9 °F 27.5 °F 29.7 °F 88% 29.83 in 5.0 mi NW 5.8 mph - N/A   Overcast
1:25 PM 32.9 °F 27.5 °F 29.7 °F 88% 29.83 in 4.0 mi NW 5.8 mph - N/A   Overcast
1:45 PM 32.5 °F 27.1 °F 29.7 °F 89% 29.84 in 4.0 mi NNW 5.8 mph - N/A   Overcast
2:05 PM 32.4 °F 26.0 °F 29.7 °F 90% 29.84 in 4.0 mi NNW 6.9 mph - N/A   Overcast
2:25 PM 32.2 °F 27.7 °F 29.3 °F 89% 29.85 in 4.0 mi NNW 4.6 mph - N/A   Overcast
2:45 PM 32.2 °F 26.7 °F 29.3 °F 89% 29.86 in 3.0 mi NW 5.8 mph - N/A   Overcast
3:05 PM 32.2 °F 26.7 °F 29.3 °F 89% 29.87 in 4.0 mi NW 5.8 mph - N/A   Overcast
3:25 PM 32.2 °F 27.7 °F 29.3 °F 89% 29.87 in 3.0 mi NW 4.6 mph - N/A   Overcast
3:45 PM 32.2 °F 26.7 °F 29.3 °F 89% 29.88 in 4.0 mi NW 5.8 mph - N/A   Overcast
4:05 PM 32.2 °F 25.0 °F 29.7 °F 90% 29.90 in 4.0 mi NW 8.1 mph - N/A   Overcast
4:25 PM 32.2 °F 24.4 °F 29.3 °F 89% 29.90 in 5.0 mi North 9.2 mph - N/A   Overcast
4:45 PM 32.0 °F 23.6 °F 28.4 °F 87% 29.91 in 5.0 mi North 10.4 mph - N/A   Overcast
5:05 PM 31.5 °F 24.2 °F 28.2 °F 88% 29.92 in 4.0 mi North 8.1 mph - N/A   Overcast
5:25 PM 31.1 °F 23.7 °F 27.9 °F 88% 29.92 in 4.0 mi North 8.1 mph - N/A   Overcast
5:45 PM 31.1 °F 23.1 °F 28.0 °F 88% 29.94 in 5.0 mi NNW 9.2 mph - N/A   Overcast
6:05 PM 30.9 °F 21.7 °F 27.3 °F 86% 29.95 in 7.0 mi NNW 11.5 mph - N/A   Overcast
6:25 PM 30.7 °F 22.6 °F 26.6 °F 85% 29.96 in 7.0 mi North 9.2 mph - N/A   Overcast
6:45 PM 30.2 °F 23.4 °F 26.6 °F 86% 29.96 in 7.0 mi NNW 6.9 mph - N/A   Overcast
7:05 PM 30.0 °F 24.1 °F 26.6 °F 87% 29.97 in 7.0 mi NNW 5.8 mph - N/A   Overcast
7:25 PM 29.8 °F 23.0 °F 26.4 °F 87% 29.98 in 7.0 mi NNW 6.9 mph - N/A   Overcast
7:45 PM 29.8 °F 23.0 °F 26.4 °F 87% 29.98 in 5.0 mi NW 6.9 mph - N/A   Overcast
8:05 PM 29.3 °F 20.8 °F 26.2 °F 88% 29.98 in 5.0 mi NNW 9.2 mph - N/A   Overcast
8:25 PM 29.3 °F 20.8 °F 25.7 °F 86% 29.98 in 5.0 mi NW 9.2 mph - N/A   Overcast
8:45 PM 29.1 °F 21.3 °F 25.7 °F 87% 29.99 in 5.0 mi NNW 8.1 mph - N/A   Overcast
9:05 PM 29.1 °F 24.1 °F 25.7 °F 87% 29.99 in 5.0 mi NNW 4.6 mph - N/A   Overcast
9:25 PM 29.1 °F 23.0 °F 25.7 °F 87% 30.00 in 5.0 mi NW 5.8 mph - N/A   Overcast
9:45 PM 29.3 °F 22.3 °F 26.1 °F 88% 30.00 in 5.0 mi NNW 6.9 mph - N/A   Overcast
10:05 PM 29.8 °F 23.0 °F 26.6 °F 88% 30.00 in 5.0 mi NNW 6.9 mph - N/A   Overcast
10:25 PM 30.0 °F 22.4 °F 26.6 °F 87% 30.00 in 7.0 mi North 8.1 mph - N/A   Overcast
10:45 PM 30.2 °F 21.9 °F 26.6 °F 86% 30.01 in 7.0 mi North 9.2 mph - N/A   Overcast
11:05 PM 30.2 °F 23.4 °F 26.4 °F 86% 30.01 in 10.0 mi North 6.9 mph - N/A   Overcast
11:25 PM 30.0 °F 22.4 °F 26.2 °F 86% 30.01 in 10.0 mi NNW 8.1 mph - N/A   Overcast
11:45 PM 29.8 °F 21.5 °F 26.4 °F 87% 30.01 in 10.0 mi NW 9.2 mph - N/A   Overcast